Location: Butler Cemetery
(37.9139°N, 89.0859°W)
Time: 00:57:06
(UTC+00:00)

Daily predictions for brighter satellites

Satellite Brightness Start Highest point End
(mag) Time Altitude Azimuth Time Altitude Azimuth Time Altitude Azimuth
Cosmos 1400 Rocket 4.1 01:32:14 10° NNW 01:35:55 42° W 01:39:37 10° SSW
Spot 2 4.0 01:35:07 10° SSE 01:39:08 64° ENE 01:43:08 10° N
Cosmos 1570 Rocket 4.1 01:33:54 10° NNW 01:39:09 69° ENE 01:44:22 10° SSE
H-2A R/B 2.4 01:36:44 10° NNE 01:40:36 40° E 01:44:29 10° S
Cosmos 2369 4.4 01:36:13 10° SSE 01:41:11 33° ESE 01:46:10 10° NE
Cosmos 1814 Rocket 4.1 01:36:38 10° NNW 01:41:47 83° WSW 01:46:55 10° SSE
Cosmos 1486 Rocket 4.3 01:37:39 10° S 01:42:43 48° ESE 01:47:47 10° NNE
Cosmos 1328 Rocket 3.7 01:38:40 10° S 01:42:51 53° E 01:47:04 10° NNE
MetOp-A 3.3 01:44:47 10° SSE 01:48:50 74° ENE 01:52:42 10° N
Cosmos 1697 Rocket 2.7 01:43:56 10° SSW 01:49:33 72° ESE 01:55:12 10° NNE
Cosmos 405 3.7 01:50:27 10° N 01:53:36 35° ENE 01:56:36 11° SE
Cosmos 389 Rocket 4.2 01:52:18 10° NNE 01:54:45 18° ENE 01:56:49 12° ESE
Cosmos 2360 4.2 01:50:29 10° SSW 01:56:09 76° ESE 02:01:50 10° NNE
CZ-4B R/B 1.9 01:54:40 10° NNE 01:57:36 34° E 02:00:28 10° SSE
ATLAS 2AS CENTAUR R/B 3.3 01:53:20 10° S 02:00:31 42° ESE 02:07:37 10° NE
Cosmos 1515 4.1 01:57:33 10° SSE 02:01:07 42° E 02:04:42 10° NNE
Cosmos 1151 Rocket 3.9 01:58:14 10° SSW 02:02:24 52° W 02:06:35 10° N
USA 186 3.3 02:01:01 10° SSW 02:03:05 24° W 02:05:07 10° NW
Cosmos 2297 Rocket 2.3 01:57:31 10° NNW 02:03:11 81° WSW 02:08:48 10° SSE
JB-3 4.4 02:00:02 10° NNE 02:04:12 80° E 02:08:20 10° S
NOSS 3-4 (A) 4.0 01:59:56 10° SW 02:05:29 58° NW 02:11:26 10° NNE
NOSS 3-4 (C) 4.0 01:59:57 10° SW 02:05:33 59° NW 02:11:31 10° NNE
OBJECT-B 3.3 02:04:08 10° SW 02:06:13 18° W 02:08:17 10° NW
COBE Rocket 4.0 02:01:26 10° SSE 02:06:33 86° WSW 02:11:35 10° NNW
Cosmos 1340 2.8 02:07:05 10° S 02:10:41 50° E 02:14:19 10° NNE
CZ-4 R/B 4.3 02:08:47 10° WSW 02:10:45 13° W 02:12:46 10° WNW
Cosmos 1933 Rocket 4.5 02:07:47 10° NNE 02:11:48 32° ENE 02:14:37 17° SE
Cosmos 1503 Rocket 4.2 02:06:59 10° S 02:12:03 51° ESE 02:17:11 10° NNE
Cosmos 1666 Rocket 4.0 02:09:33 10° NNW 02:13:55 62° W 02:18:17 10° S
Resurs 1-3 3.8 02:09:47 10° S 02:14:08 73° WSW 02:18:32 10° NNW
SJ-6B 4.3 02:13:19 10° SSW 02:16:49 34° W 02:20:17 10° NNW
H-2A R/B 3.9 02:13:39 10° SSW 02:17:43 37° W 02:21:43 10° NNW
SJ 16-02 2.0 02:15:43 12° SSE 02:19:17 34° E 02:23:14 10° NE
Cosmos 1315 Rocket 3.6 02:15:23 10° NNW 02:19:20 51° W 02:23:12 10° S
SL-16 R/B 3.8 02:18:47 14° ESE 02:19:25 14° E 02:22:12 10° ENE
Cosmos 1072 Rocket 4.4 02:13:57 10° S 02:19:59 68° E 02:26:04 10° NNE
Cosmos 1633 Rocket 3.5 02:17:34 10° NNW 02:21:53 62° W 02:26:09 10° S
SPOT 1/Viking Rocket 3.7 02:22:07 16° SSE 02:26:08 59° ENE 02:31:13 10° N
Cosmos 1743 2.8 02:24:19 10° N 02:28:03 55° E 02:30:10 23° SSE
Cosmos 1470 Rocket 3.5 02:29:14 10° N 02:33:34 82° W 02:37:01 16° S
Meteor 1-27 Rocket 3.9 02:28:37 10° SSW 02:34:21 80° W 02:40:15 10° N
CENTAUR R/B 4.5 02:29:47 10° NW 02:37:25 36° WSW 02:45:21 10° S
OAO 3 Rocket 3.5 02:34:12 10° W 02:38:59 54° S 02:41:32 26° SE
Cosmos 2278 3.8 02:34:11 10° S 02:39:40 55° ESE 02:45:11 10° NNE
Resurs 01 Rocket 1.7 02:39:24 18° S 02:42:41 74° W 02:47:06 10° NNW
Cosmos 2219 3.5 02:37:14 10° NNW 02:42:48 64° WSW 02:47:00 18° S
Cosmos 1515 Rocket 4.1 02:39:17 10° SSW 02:43:34 58° W 02:47:55 10° N
Ariane Rocket 2.9 02:40:48 21° SSE 02:44:17 83° ENE 02:49:23 10° NNW
SPOT 5 4.0 02:43:22 23° ESE 02:45:39 32° ENE 02:50:11 10° N
Terra 3.4 02:44:34 17° E 02:46:06 20° ENE 02:49:31 10° NNE
Cosmos 2034 Rocket 4.0 02:42:41 12° S 02:48:29 73° E 02:54:49 10° N
Cosmos 2082 3.7 02:43:50 10° NNW 02:49:28 73° ENE 02:52:31 28° SSE
Cosmos 921 Rocket 3.1 02:46:30 10° N 02:50:59 63° ENE 02:52:47 34° SE
ISS -1.2 02:48:55 10° NNW 02:51:02 15° NNE 02:53:04 10° ENE
Cosmos 2263 Rocket 3.0 02:46:40 10° N 02:51:49 36° ENE 02:54:16 25° ESE
Cosmos 1378 4.0 02:52:06 30° E 02:52:06 30° E 02:55:19 10° NNE
Meteor 1-11 Rocket 4.4 02:47:09 10° NNW 02:52:59 57° W 02:58:21 12° S
CARTOSAT-1 3.5 02:54:34 34° SSE 02:56:18 69° ENE 03:00:36 10° N
Cosmos 2228 Rocket 3.1 02:58:45 33° SSE 03:00:37 62° E 03:05:08 10° NNE
Cosmos 1869 Rocket 3.8 02:57:33 10° N 03:01:57 54° E 03:03:11 40° SE
Okean 1 3.3 03:02:18 28° SSW 03:04:21 80° W 03:08:22 10° N
Cosmos 2344 4.1 02:58:18 10° SW 03:05:50 59° NW 03:13:15 10° NNE
Cosmos 1536 4.1 03:02:34 10° NNW 03:06:18 37° W 03:08:52 18° SSW
NOSS 2-1 (C) 3.4 03:07:58 41° ENE 03:07:58 41° ENE 03:10:16 10° NE
RESURS DK-1 2.7 03:05:28 10° SSW 03:09:31 64° WNW 03:13:38 10° NNE
Cosmos 2227 Rocket 3.6 03:05:14 10° NW 03:10:12 32° WSW 03:14:17 14° SSW
Cosmos 783 Rocket 4.5 03:05:44 10° NNW 03:10:56 69° ENE 03:12:43 40° SE
SL-4 R/B 2.4 03:08:43 10° WNW 03:13:07 55° SW 03:13:57 46° S
Cosmos 1980 Rocket 3.3 03:09:24 10° SW 03:14:45 45° WNW 03:20:11 10° N
USA 245 4.4 03:12:37 31° S 03:15:36 85° WSW 03:21:59 10° NNW
NOSS 2-1 (D) 3.1 03:18:12 55° NE 03:18:12 55° NE 03:20:46 10° NE
Cosmos 1777 Rocket 4.1 03:13:04 14° SSW 03:17:35 78° WNW 03:22:50 10° NNE
Spot 2 Rocket 3.5 03:16:25 43° SE 03:17:57 66° ENE 03:22:57 10° N
SPOT 3 Rocket 3.6 03:18:44 34° S 03:20:58 72° WSW 03:26:08 10° NNW
Cosmos 1707 Rocket 3.6 03:22:35 54° ESE 03:22:56 56° E 03:27:16 10° NNE
Cosmos 2322 Rocket 2.7 03:23:15 37° ESE 03:23:21 37° ESE 03:28:28 10° NE
ARIANE 5 R/B 3.4 03:23:46 36° E 03:24:11 37° ENE 03:28:18 10° N
Cosmos 773 Rocket 3.9 03:19:03 10° NNW 03:24:17 89° WSW 03:25:48 47° SSE
BREEZE-M DEB (TANK) 4.2 03:22:50 10° NNW 03:24:48 19° NNE 03:26:20 15° ENE
USA 215 4.1 03:21:14 10° ENE 03:25:34 28° ESE 03:25:34 28° ESE
Cosmos 1428 Rocket 4.5 03:21:03 10° N 03:27:21 70° E 03:29:36 41° SSE
Cosmos 2333 Rocket 4.3 03:31:12 11° ENE 03:31:12 11° ENE 03:31:41 10° ENE
Meteor 2-4 Rocket 3.7 03:28:29 38° S 03:30:47 79° E 03:36:29 10° NNE
Cosmos 44 Rocket 3.6 03:31:05 10° NNW 03:35:39 48° NE 03:36:16 45° E
Cosmos 1975 2.8 03:32:20 10° N 03:36:17 72° ENE 03:36:17 72° ENE
Helios 1A Rocket 3.4 03:43:33 47° WSW 03:43:53 49° W 03:47:47 10° NNW
Cosmos 2219 Rocket 4.4 03:49:49 11° ENE 03:49:49 11° ENE 03:50:21 10° ENE
Cosmos 158 Rocket 3.8 03:42:38 10° NNW 03:47:50 85° ENE 03:48:35 66° SSE
Cosmos 1092 Rocket 4.0 03:42:30 10° N 03:48:40 75° W 03:50:43 44° SSW
Cosmos 1634 Rocket 4.0 03:48:30 36° SSW 03:51:11 76° W 03:57:24 10° N
ATLAS 2AS CENTAUR R/B 4.0 03:44:03 10° WSW 03:51:28 45° NW 03:58:42 10° NNE
USA 81 4.0 03:51:32 56° SSW 03:52:40 81° W 03:57:58 10° N
ERS-1 Rocket 3.1 03:52:28 55° SSW 03:53:21 66° WSW 03:58:22 10° NNW
Cosmos 2227 4.1 03:49:01 10° NNW 03:54:48 80° ENE 03:55:45 63° SE
Cosmos 2142 Rocket 4.4 03:54:38 53° SSE 03:56:15 77° E 04:02:38 10° N
Cosmos 1733 Rocket 3.2 03:51:56 10° N 03:56:04 68° NE 03:56:04 68° NE
Meteor 2-15 Rocket 4.3 03:56:14 57° SSE 03:57:29 77° E 04:03:34 10° N
SJ 16-02 3.9 03:54:46 10° WSW 03:57:54 19° WNW 04:01:02 10° NNW
SL-16 R/B 2.3 04:00:33 37° SW 04:02:48 71° WNW 04:08:29 10° NNE
Cosmos 2237 4.1 04:04:12 68° S 04:04:55 81° ESE 04:10:39 10° NNE
Cosmos 1538 Rocket 3.8 04:00:12 10° NNW 04:05:27 86° ENE 04:05:40 82° SE
Cosmos 1862 Rocket 3.7 04:05:58 74° NW 04:05:58 74° NW 04:10:14 10° N
Geosat 4.4 04:09:12 48° ENE 04:09:29 49° ENE 04:14:19 10° NNW
Cosmos 1441 Rocket 4.4 04:10:50 39° N 04:10:50 39° N 04:13:16 10° N
Cosmos 1346 Rocket 4.0 04:11:56 36° W 04:12:03 36° WNW 04:15:47 10° N
Cosmos 2026 Rocket 4.4 04:07:27 10° NNW 04:13:28 55° W 04:15:15 41° SW
Cosmos 1655 Rocket 4.4 04:12:37 10° N 04:18:34 45° ENE 04:18:59 44° E
ATLAS 3B R/B 2.9 04:12:59 10° NNW 04:20:27 76° ENE 04:22:21 54° SE
Cosmos 1937 Rocket 4.2 04:23:08 42° ENE 04:23:08 42° ENE 04:27:01 10° NNE
Terra 2.7 04:23:27 40° W 04:23:32 40° W 04:28:01 10° NNW
Cosmos 923 Rocket 4.4 04:18:21 10° N 04:23:29 53° ENE 04:23:29 53° ENE
SPOT 5 4.4 04:22:34 28° WSW 04:23:36 30° W 04:28:08 10° NW
Cosmos 2360 Rocket 2.0 04:27:32 83° E 04:27:32 83° E 04:33:06 10° NNE
ISS -1.1 04:24:51 10° NW 04:25:58 19° NW 04:25:58 19° NW
Meteor 1-13 Rocket 4.1 04:34:10 77° WSW 04:34:21 79° W 04:39:56 10° N
Cosmos 2263 Rocket 3.5 04:30:53 10° NW 04:35:32 28° WSW 04:35:57 28° WSW
Okean 1-7 4.0 04:44:36 45° N 04:44:36 45° N 04:47:40 10° N
Cosmos 1680 Rocket 3.8 04:39:53 10° N 04:44:38 58° NE 04:44:38 58° NE
Cosmos 2266 Rocket 3.8 04:43:17 10° N 04:49:31 83° E 04:49:37 83° ESE
Cosmos 1898 Rocket 3.9 04:52:43 59° WNW 04:52:43 59° WNW 04:57:59 10° N
Iridium 4 Rocket 3.8 04:49:04 10° N 04:52:48 57° N 04:52:48 57° N
Cosmos 1818 4.1 04:49:24 10° NNW 04:54:36 49° NE 04:54:36 49° NE
Meteor 1-12 Rocket 4.3 04:54:37 10° NNW 05:00:19 73° WNW 05:00:19 73° WNW
ATLAS CENTAUR R/B 2.9 04:57:57 10° NNW 05:01:48 37° NNE 05:01:48 37° NNE
Cosmos 2322 Rocket 3.8 05:04:59 21° W 05:07:25 29° WNW 05:12:15 10° N
USA 215 3.4 05:03:37 10° NE 05:10:08 69° NW 05:12:52 37° WSW
Cosmos 2322 4.0 05:13:04 62° NE 05:13:04 62° NE 05:17:51 10° NNE
Cosmos 2333 Rocket 2.3 05:13:10 70° NNW 05:13:10 70° NNW 05:18:25 10° NNE
ADEOS Rocket 3.6 05:13:15 41° ENE 05:13:18 41° ENE 05:18:47 10° N
Cosmos 1844 Rocket 3.0 05:09:50 10° NNW 05:14:32 60° WNW 05:14:32 60° WNW
SL-08 ROCKET BODY 4.5 05:24:09 10° N 05:29:27 66° NE 05:29:27 66° NE
Cosmos 2219 Rocket 2.4 05:31:30 64° NNW 05:31:30 64° NNW 05:36:29 10° NNE
Cosmos 1844 4.4 05:34:23 10° NNW 05:38:56 46° WNW 05:38:56 46° WNW
Cosmos 1553 Rocket 4.1 05:42:09 65° ENE 05:42:09 65° ENE 05:47:48 10° NNE
USA 267 4.1 05:38:54 23° E 05:42:42 45° NE 05:48:50 10° NW
Cosmos 1244 Rocket 4.5 05:40:49 10° N 05:46:51 80° NE 05:46:51 80° NE
ALOS 2 4.2 05:51:33 30° NW 05:51:33 30° NW 05:53:58 10° NNW
Nadezhda 2 Rocket 4.4 05:44:06 10° N 05:49:49 79° N 05:49:49 79° N
NOSS 0 Rocket 4.2 05:56:55 61° ENE 05:56:55 61° ENE 06:02:23 10° NNE
Okean 2 Rocket 4.5 05:54:37 10° N 05:57:28 38° N 05:57:28 38° N
Cosmos 2237 Rocket 3.0 06:02:09 43° ENE 06:02:09 43° ENE 06:06:25 10° NNE
COSMOS 2428 3.2 06:05:46 51° NW 06:05:46 51° NW 06:11:04 10° NNE
Cosmos 1953 4.5 06:05:14 10° N 06:07:09 24° NNE 06:07:09 24° NNE
Resurs 1-4 Rocket 4.4 06:08:14 10° ENE 06:10:14 13° E 06:10:14 13° E
ATLAS 3B R/B 4.4 06:05:07 10° WNW 06:09:35 21° W 06:09:35 21° W
CZ-4C R/B 3.0 06:05:18 10° NNW 06:12:56 83° ENE 06:14:45 60° SE
NOSS 3-1 (A) 4.2 06:07:55 10° NNW 06:15:42 75° ENE 06:18:26 48° SE
NOSS 3-1 (C) 4.1 06:14:59 10° NW 06:22:48 66° WSW 06:23:27 64° SW
Cosmos 1745 Rocket 3.9 06:17:33 10° N 06:23:37 79° ENE 06:23:37 79° ENE
Okean 1 Rocket 4.3 06:30:11 10° N 06:33:02 39° N 06:33:02 39° N
Cosmos 2278 Rocket 2.3 06:30:43 10° NNW 06:36:05 70° NE 06:36:05 70° NE
Cosmos 371 Rocket 4.2 06:41:23 45° NNW 06:41:23 45° NNW 06:45:07 10° N
ATLAS CENTAUR R/B 4.2 06:37:23 10° WNW 06:37:47 12° WNW 06:37:47 12° WNW
Lacrosse 5 2.8 06:43:42 42° ENE 06:43:42 42° ENE 06:47:13 10° NE
Cosmos 883 Rocket 4.4 06:42:27 86° ESE 06:42:31 86° E 06:48:52 10° N
USA 32 4.3 06:44:30 66° NNE 06:44:30 66° NNE 06:49:02 10° N
ATLAS 5 CENTAUR R/B 2.8 06:37:18 10° NW 06:45:39 67° NNW 06:45:39 67° NNW
Cosmos 304 Rocket 4.4 06:49:36 53° N 06:49:36 53° N 06:53:19 10° NNE
SL-16 R/B 3.0 06:49:47 40° E 06:49:47 40° E 06:54:41 10° NE
Cosmos 1980 4.1 06:53:24 54° WNW 06:53:24 54° WNW 06:58:48 10° NNE
SME Rocket 4.2 06:58:11 39° ENE 06:58:11 39° ENE 07:02:22 10° N
ADEOS Rocket 4.4 07:00:12 22° WNW 07:00:12 22° WNW 07:03:35 10° NW
Meteor 2-10 Rocket 3.7 06:55:50 10° N 07:01:19 75° ENE 07:01:19 75° ENE
SL-16 R/B 3.9 07:01:09 19° ESE 07:04:47 34° ENE 07:10:17 10° N
MOZ.5/SAFIR/RUBIN 5/SL-8 4.1 07:09:27 64° NNE 07:09:27 64° NNE 07:13:37 10° N
Cosmos 1455 Rocket 3.8 07:07:15 10° N 07:10:49 53° NNE 07:10:49 53° NNE
EO 1 Delta rocket 4.2 07:08:48 10° N 07:13:11 66° NW 07:13:11 66° NW
Meteor 1-24 Rocket 3.7 07:14:10 66° ESE 07:14:23 67° E 07:19:50 10° NNE
Cosmos 1709 Rocket 4.0 07:12:01 10° NNW 07:18:01 62° W 07:18:05 62° W
Cosmos 2315 Rocket 4.1 07:17:55 57° W 07:18:21 58° W 07:24:39 10° N
COSMOS 2455 3.4 07:18:09 44° SE 07:18:38 45° ESE 07:24:20 10° NE
Cosmos 1975 Rocket 3.8 07:25:12 47° NNW 07:25:12 47° NNW 07:28:37 10° N
USA 267 3.4 07:26:12 52° WSW 07:26:12 52° WSW 07:31:58 10° NW
CZ-2D R/B 2.2 07:20:32 10° NNE 07:25:52 66° ESE 07:26:09 65° ESE
Cosmos 1025 Rocket 3.7 07:27:37 50° NNW 07:27:37 50° NNW 07:30:57 10° N
Lacrosse 5 rocket 2.2 07:36:40 44° NNE 07:36:40 44° NNE 07:39:39 10° NE
USA 229 DEB 4.2 07:32:43 10° NW 07:39:49 45° WSW 07:40:07 45° WSW
USA 229 4.2 07:32:49 10° NW 07:39:55 46° WSW 07:40:15 45° WSW
Meteor 2-5 Rocket 3.8 07:40:07 59° WSW 07:40:34 61° W 07:46:12 10° N
Cosmos 2237 Rocket 3.8 07:43:57 21° WNW 07:45:15 23° NW 07:49:43 10° N
UNK 4.1 07:48:50 48° ESE 07:49:49 59° ENE 07:54:21 10° N
CZ-4 R/B 3.7 07:45:21 10° N 07:49:56 69° WNW 07:49:56 69° WNW
Resurs 1-4 Rocket 2.0 07:45:30 10° N 07:50:45 70° WNW 07:51:19 64° WSW
EO 1 Del DPAF 4.3 07:49:42 10° NNE 07:52:35 35° E 07:52:35 35° E
Helios 1A 4.5 07:51:33 22° ESE 07:53:27 34° ENE 07:57:16 10° N
NOSS 3-3 (A) 4.3 07:52:29 39° SSE 07:53:41 45° ESE 07:59:26 10° NE
NOSS 3-3 (C) 4.3 07:52:34 38° SSE 07:53:47 44° ESE 07:59:31 10° NE
Nadezhda 1 Rocket 4.1 07:53:45 43° SSE 07:55:57 75° E 08:02:15 10° N
Cosmos 1544 Rocket 3.6 07:53:50 10° NNW 07:57:54 67° WNW 07:57:54 67° WNW
CZ-4C R/B 4.3 07:55:16 10° WNW 07:59:52 22° W 07:59:52 22° W
Cosmos 614 Rocket 4.4 07:56:17 10° N 08:01:26 59° ENE 08:04:35 23° SE
IDEFIX/ARIANE 42P 2.8 07:57:30 10° NNE 08:02:44 63° ESE 08:04:17 43° SSE
Cosmos 1943 Rocket 2.1 07:57:34 10° NNW 08:03:15 81° WSW 08:05:08 44° S
ADEOS II 2.0 07:58:48 10° NNE 08:04:05 80° ESE 08:05:23 52° S
Meteor 1-28 Rocket 3.8 08:06:01 46° ESE 08:06:36 52° ENE 08:10:14 10° N
Cosmos 2297 3.6 08:04:57 10° NNW 08:10:45 89° ENE 08:13:59 27° SSE
MOS 1 Rocket 2.9 08:10:22 66° SSE 08:10:58 88° ENE 08:15:16 10° NNW
IRS-1D 4.4 08:08:43 10° NNE 08:13:50 46° E 08:16:21 27° SSE
Cosmos 2251 Rocket 4.5 08:09:54 10° N 08:14:59 47° ENE 08:20:03 10° SE
Cosmos 2278 Rocket 4.3 08:17:05 10° WNW 08:17:53 12° WNW 08:17:53 12° WNW
Lacrosse 5 3.6 08:22:52 17° WNW 08:25:29 25° NW 08:29:41 10° NNE
NPP 4.3 08:21:09 10° N 08:26:10 41° WNW 08:27:34 34° WSW
Cosmos 1455 3.3 08:25:04 10° NNW 08:27:35 30° WNW 08:27:35 30° WNW
Cosmos 2369 Rocket 2.5 08:27:54 10° NNW 08:33:29 67° ENE 08:39:01 10° SSE
Cosmos 2154 Rocket 4.0 08:27:19 10° NNW 08:33:34 63° W 08:36:42 30° SSW
SL-16 R/B 3.5 08:31:39 22° W 08:33:37 27° WNW 08:38:24 10° N
Cosmos 1656 Rocket 4.3 08:29:50 10° NNW 08:35:08 53° ENE 08:40:26 10° SE
Cosmos 1271 Rocket 2.7 08:33:59 10° NNW 08:37:45 56° W 08:38:06 54° WSW
Meteor 1-21 Rocket 4.1 08:35:30 31° S 08:38:17 87° W 08:43:53 10° N
FALCON 9 R/B 4.4 08:15:07 10° WNW 08:41:29 45° SW 08:48:58 10° SSE
Cosmos 2228 2.9 08:39:46 10° NNW 08:44:07 73° W 08:45:55 34° S
BREEZE-M DEB (TANK) 3.0 08:42:54 31° WSW 08:45:18 75° NW 08:48:01 10° NE
SL-16 R/B 3.1 08:46:14 29° SW 08:48:14 36° W 08:53:57 10° NNW
Cosmos 1603 3.7 08:53:55 28° SSW 08:56:59 75° WNW 09:02:40 10° NNE
Cosmos 407 Rocket 3.9 08:52:33 10° NNW 08:57:50 64° ENE 09:03:01 10° SSE
Cosmos 1371 Rocket 4.1 08:55:16 21° S 08:58:43 70° ESE 09:03:52 10° NNE
Cosmos 2058 Rocket 4.1 08:56:44 10° N 09:00:55 44° E 09:05:05 10° SSE
MOS 1-B Rocket 4.1 08:58:31 10° SSE 09:04:04 69° ENE 09:09:46 10° N
COSMOS 2455 4.1 09:01:17 18° W 09:04:42 29° NW 09:09:54 10° N
Cosmos 1140 Rocket 3.6 09:00:00 10° NNW 09:05:16 80° ENE 09:10:29 10° SSE
CZ-2D R/B 4.0 09:02:16 10° NNW 09:05:16 15° WNW 09:07:28 12° W
GPS 2-04 Rocket1 2.7 09:05:26 35° SSW 09:06:17 44° SSE 09:09:38 10° E
SeaSat 1 4.2 09:03:27 10° NE 09:07:34 26° ESE 09:11:38 10° SSE
DNEPR-1 R/B 3.9 09:06:04 27° WSW 09:08:04 49° NW 09:12:27 10° NNE
Cosmos 1328 4.0 09:06:31 29° SW 09:08:10 51° W 09:12:04 10° N
Helios 1B rocket 2.3 09:10:17 10° N 09:14:22 83° WNW 09:17:16 18° SSW
Lacrosse 5 rocket 3.8 09:14:08 10° NW 09:15:34 12° NNW 09:17:00 10° N
Cosmos 1241 Rocket 4.4 09:12:18 19° SSW 09:16:53 88° WNW 09:23:07 10° NNE
Cosmos 2218 Rocket 4.0 09:12:19 10° N 09:18:37 88° W 09:24:56 10° S
Cosmos 1825 3.5 09:17:33 10° SSE 09:20:59 37° E 09:24:26 10° NNE
Cosmos 1606 Rocket 4.0 09:17:06 10° NNW 09:21:14 41° W 09:24:16 17° SSW
Cosmos 1023 Rocket 4.5 09:17:45 10° NNW 09:22:59 67° WSW 09:28:09 10° S
CZ-3 R/B 4.3 08:31:25 10° WSW 09:24:00 65° S 09:36:06 10° ESE
OAO 2 Rocket 3.4 09:21:48 19° WSW 09:25:17 57° S 09:30:06 10° E
Cosmos 1943 4.0 09:23:26 17° WSW 09:27:12 37° WNW 09:32:29 10° N
Cosmos 2181 Rocket 4.2 09:25:17 13° SSW 09:30:44 55° W 09:36:48 10° N
Cosmos 1959 Rocket 4.5 09:25:07 10° N 09:31:20 72° W 09:37:26 10° S
Cosmos 1624 Rocket 4.1 09:27:34 15° SSW 09:31:52 63° WNW 09:37:09 10° NNE
Meteor 1-11 4.3 09:26:55 11° SSW 09:32:26 67° W 09:38:12 10° N
SEDSat Delta rocket 4.5 09:28:00 16° WSW 09:33:12 47° S 09:39:33 10° ESE
Lacrosse 4 Rocket 1.6 09:31:42 12° SSW 09:35:38 74° ESE 09:39:51 10° NNE
ARIANE 5 R/B 2.7 09:30:55 10° NNE 09:35:58 74° ESE 09:40:56 10° S
IRS-1C 4.2 09:30:55 10° NNE 09:36:17 89° ESE 09:41:37 10° SSW
Cosmos 2098 4.1 09:33:19 10° N 09:36:18 89° ENE 09:39:23 10° S
Cosmos 1408 2.9 09:35:11 15° SSW 09:38:01 47° W 09:41:33 10° N
ATLAS 3B CENTAUR R/B 3.8 09:38:32 10° SSE 09:39:56 11° SE 09:41:33 10° SE
Cosmos 1892 2.9 09:37:51 12° SSW 09:41:13 53° W 09:44:55 10° N
IDEFIX/ARIANE 42P 4.4 09:38:41 10° NNW 09:41:44 16° WNW 09:44:47 10° W
ADEOS II 4.1 09:40:54 10° NW 09:43:02 12° WNW 09:45:09 10° W
Cosmos 2056 Rocket 3.9 09:39:27 13° SW 09:43:51 48° WNW 09:48:56 10° N
Okean 1-7 Rocket 3.5 09:39:50 10° SSW 09:44:14 75° W 09:48:39 10° N
Cosmos 1484 Rocket 4.1 09:42:16 10° NNE 09:45:57 40° E 09:49:40 10° S
FENGYUN 3A 3.8 09:42:12 10° N 09:47:29 58° WNW 09:52:45 10° SSW
ALOS 2.4 09:45:31 10° N 09:50:07 60° WNW 09:54:41 10° SSW
CZ-2C R/B 4.4 09:53:24 10° SE 09:58:07 37° ENE 10:02:55 10° N
Cosmos 1602 Rocket 3.7 09:53:43 10° S 09:58:10 83° E 10:02:37 10° N
Cosmos 1190 Rocket 4.2 09:55:35 10° NNW 10:00:42 50° WSW 10:05:47 10° S
ATLAS 2A CENTAUR R/B 3.9 09:53:52 10° WSW 10:07:57 40° SSW 10:13:44 10° ESE
CZ-2C R/B 3.0 10:04:15 10° N 10:09:02 42° WNW 10:13:39 10° SW
YAOGAN 6 3.9 10:06:16 10° NNE 10:09:42 41° E 10:13:07 10° S
